Regional Weather Roundup
Issued by NWS

Home | Current Version | Previous Version | Text Only | Print | Product List | Glossary Off
Versions: 1 2 3 4 5 6 7 8 9 10 11 12 13 14 15 16 17 18 19 20 21 22 23 24 25 26 27 28 29 30 31 32 33 34 35 36 37 38 39 40 41 42 43 44 45 46 47 48 49 50

000
ASUS43 KFSD 041602
RWRSD

WEATHER ROUNDUP FOR SOUTH DAKOTA
NATIONAL WEATHER SERVICE SIOUX FALLS SD
1100 AM CDT SAT JUL 04 2015

NOTE: "FAIR" INDICATES FEW OR NO CLOUDS BELOW 12,000 FEET WITH NO
SIGNIFICANT WEATHER AND/OR OBSTRUCTIONS TO VISIBILITY.


SDZ001>005-009-010-012>017-041700-
NORTHWEST AND NORTH CENTRAL SOUTH DAKOTA

CITY           SKY/WX    TMP DP  RH WIND       PRES   REMARKS
BUFFALO          N/A     79  64  60 S3        29.78F
FAITH            N/A     78  64  61 S15       29.82S
MOBRIDGE       SUNNY     78  69  73 S16       29.80S
$$

SDZ012>016-024>037-041>051-057-063-072>074-041700-
SOUTHWEST AND SOUTH CENTRAL SOUTH DAKOTA

CITY           SKY/WX    TMP DP  RH WIND       PRES   REMARKS
RAPID CTY ARPT SUNNY     79  66  64 S8        29.85S
PIERRE         SUNNY     79  66  64 S8        29.83F
CUSTER         SUNNY     78  55  44 SW6       30.00F
ELLSWORTH AFB  SUNNY     80  65  61 S9        29.83F
PHILIP         SUNNY     81  67  62 S7        29.82F
PINE RIDGE     SUNNY     79  65  62 S10       29.89F
WINNER         FAIR      82  61  48 S13       29.88F
$$

SDZ004>011-016>023-039-040-041700-
NORTHEAST SOUTH DAKOTA

CITY           SKY/WX    TMP DP  RH WIND       PRES   REMARKS
ABERDEEN       MOSUNNY   76  68  76 SE9       29.86F
WATERTOWN      SUNNY     76  65  68 S9        29.92F
BROOKINGS      SUNNY     73  64  73 S12       29.96S
SISSETON         N/A     79  64  60 S9        29.88F
$$

SDZ017-020-022-023-036>040-048>070-041700-
SOUTHEAST SOUTH DAKOTA

CITY           SKY/WX    TMP DP  RH WIND       PRES   REMARKS
SIOUX FALLS    MOSUNNY   75  65  70 S12       29.95F
HURON          MOSUNNY   76  67  73 SE10      29.87F
MITCHELL       MOSUNNY   76  68  76 S10       29.91F
YANKTON        MOSUNNY   75  64  69 SE7       29.93F
$$

ABBREVIATIONS USED IN REMARKS
   TC - TEMPERATURE IN CELSIUS
  WCI - WIND CHILL INDEX
   HX - HEAT INDEX
  VSB - VISIBILITY




USA.gov is the U.S. government's official web portal to all federal, state and local government web resources and services.